Hourly Weather Bolshie Karkaly

Today, 24 July, Saturday

Time Temperature Precipitation Wind Pressure Humidity
00:00 +16°C° 0 mm 1 mps 723 mmHg 71%
01:00 +15°C° 0 mm 1 mps 723 mmHg 72%
02:00 +15°C° 0 mm 1 mps 723 mmHg 75%
03:00 +14°C° 0 mm 1 mps 723 mmHg 78%
04:00 +14°C° 0 mm 1 mps 723 mmHg 82%
05:00 +15°C° 0 mm 1 mps 723 mmHg 76%
06:00 +18°C° 0 mm 1 mps 724 mmHg 69%
07:00 +20°C° 0 mm 1 mps 724 mmHg 63%
08:00 +20°C° 0 mm 2 mps 724 mmHg 56%
09:00 +23°C° 0 mm 2 mps 725 mmHg 49%
10:00 +24°C° 0 mm 3 mps 725 mmHg 43%
11:00 +25°C° 0 mm 3 mps 725 mmHg 40%
12:00 +26°C° 0 mm 3 mps 725 mmHg 37%
13:00 +26°C° 0 mm 3 mps 725 mmHg 34%
14:00 +26°C° 0 mm 3 mps 725 mmHg 36%
15:00 +26°C° 0 mm 3 mps 725 mmHg 37%
16:00 +25°C° 0 mm 3 mps 725 mmHg 39%
17:00 +24°C° 0 mm 3 mps 725 mmHg 41%
18:00 +24°C° 0 mm 3 mps 726 mmHg 43%
19:00 +22°C° 0 mm 3 mps 726 mmHg 44%
20:00 +20°C° 0 mm 3 mps 726 mmHg 51%
21:00 +18°C° 0 mm 2 mps 727 mmHg 58%
22:00 +17°C° 0 mm 2 mps 727 mmHg 65%
23:00 +16°C° 0 mm 2 mps 727 mmHg 67%

Tomorrow, 25 July, Sunday

Time Temperature Precipitation Wind Pressure Humidity
00:00 +16°C° 0 mm 2 mps 727 mmHg 70%
01:00 +16°C° 0 mm 1 mps 728 mmHg 72%
02:00 +15°C° 0 mm 2 mps 728 mmHg 76%
03:00 +15°C° 0 mm 2 mps 728 mmHg 79%
04:00 +14°C° 0 mm 2 mps 729 mmHg 83%
05:00 +14°C° 0 mm 3 mps 729 mmHg 80%
06:00 +14°C° 0 mm 4 mps 730 mmHg 76%
07:00 +15°C° 0 mm 5 mps 731 mmHg 73%
08:00 +16°C° 0 mm 5 mps 731 mmHg 64%
09:00 +19°C° 0 mm 5 mps 731 mmHg 54%
10:00 +20°C° 0 mm 5 mps 732 mmHg 45%
11:00 +21°C° 0 mm 5 mps 732 mmHg 41%
12:00 +22°C° 0 mm 5 mps 732 mmHg 37%
13:00 +23°C° 0 mm 5 mps 733 mmHg 32%
14:00 +23°C° 0 mm 4 mps 733 mmHg 31%
15:00 +23°C° 0 mm 4 mps 733 mmHg 29%
16:00 +23°C° 0 mm 4 mps 733 mmHg 28%
17:00 +22°C° 0 mm 4 mps 733 mmHg 30%
18:00 +22°C° 0 mm 3 mps 733 mmHg 33%
19:00 +21°C° 0 mm 3 mps 733 mmHg 36%
20:00 +18°C° 0 mm 3 mps 734 mmHg 40%
21:00 +16°C° 0 mm 3 mps 734 mmHg 44%
22:00 +13°C° 0 mm 3 mps 734 mmHg 48%
23:00 +12°C° 0 mm 3 mps 735 mmHg 51%

Day after tomorrow, 26 July, Monday

Time Temperature Precipitation Wind Pressure Humidity
00:00 +12°C° 0 mm 2 mps 735 mmHg 53%
01:00 +10°C° 0 mm 2 mps 735 mmHg 56%
02:00 +10°C° 0 mm 2 mps 735 mmHg 58%
03:00 +10°C° 0 mm 2 mps 735 mmHg 59%
04:00 +9°C° 0 mm 2 mps 735 mmHg 61%
05:00 +12°C° 0 mm 2 mps 736 mmHg 56%
06:00 +14°C° 0 mm 2 mps 736 mmHg 51%
07:00 +15°C° 0 mm 2 mps 736 mmHg 47%
08:00 +17°C° 0 mm 2 mps 737 mmHg 42%
09:00 +19°C° 0 mm 3 mps 737 mmHg 37%
10:00 +20°C° 0 mm 3 mps 737 mmHg 32%
11:00 +21°C° 0 mm 3 mps 737 mmHg 31%
12:00 +22°C° 0 mm 3 mps 736 mmHg 29%
13:00 +24°C° 0 mm 3 mps 736 mmHg 27%
14:00 +23°C° 0 mm 4 mps 736 mmHg 28%
15:00 +23°C° 0 mm 4 mps 736 mmHg 28%
16:00 +23°C° 0 mm 5 mps 736 mmHg 28%
17:00 +22°C° 0 mm 4 mps 735 mmHg 31%
18:00 +22°C° 0 mm 3 mps 735 mmHg 34%
19:00 +21°C° 0 mm 2 mps 735 mmHg 37%
20:00 +19°C° 0 mm 2 mps 735 mmHg 40%
21:00 +18°C° 0 mm 1 mps 735 mmHg 43%
22:00 +16°C° 0 mm 1 mps 735 mmHg 46%
23:00 +15°C° 0 mm 1 mps 735 mmHg 48%

27 July, Tuesday

Time Temperature Precipitation Wind Pressure Humidity
00:00 +15°C° 0 mm 1 mps 735 mmHg 49%
01:00 +15°C° 0 mm 1 mps 735 mmHg 51%
02:00 +14°C° 0 mm 1 mps 735 mmHg 53%
03:00 +14°C° 0 mm 1 mps 734 mmHg 55%
04:00 +14°C° 0 mm 1 mps 734 mmHg 57%
05:00 +15°C° 0 mm 1 mps 734 mmHg 53%
06:00 +16°C° 0 mm 2 mps 734 mmHg 50%
07:00 +18°C° 0 mm 2 mps 735 mmHg 47%
08:00 +19°C° 0 mm 3 mps 734 mmHg 43%
09:00 +21°C° 0 mm 3 mps 734 mmHg 40%
10:00 +23°C° 0 mm 4 mps 734 mmHg 36%
11:00 +23°C° 0 mm 4 mps 734 mmHg 35%
12:00 +23°C° 0 mm 5 mps 733 mmHg 34%
13:00 +23°C° 0 mm 5 mps 733 mmHg 33%
14:00 +23°C° 0 mm 4 mps 733 mmHg 35%
15:00 +22°C° 0 mm 4 mps 732 mmHg 37%
16:00 +22°C° 0 mm 4 mps 732 mmHg 39%
17:00 +22°C° 0 mm 4 mps 732 mmHg 40%
18:00 +22°C° 0 mm 4 mps 731 mmHg 40%
19:00 +22°C° 0 mm 4 mps 731 mmHg 41%
20:00 +20°C° 0 mm 3 mps 731 mmHg 47%
21:00 +18°C° 0 mm 3 mps 731 mmHg 52%
22:00 +17°C° 0 mm 2 mps 730 mmHg 58%
23:00 +16°C° 0 mm 2 mps 730 mmHg 59%

28 July, Wednesday

Time Temperature Precipitation Wind Pressure Humidity
00:00 +16°C° 0 mm 2 mps 730 mmHg 61%
01:00 +16°C° 0 mm 2 mps 730 mmHg 62%
02:00 +16°C° 0.1 mm 2 mps 730 mmHg 66%
03:00 +16°C° 0.1 mm 3 mps 730 mmHg 70%
04:00 +16°C° 0.1 mm 3 mps 730 mmHg 74%
05:00 +15°C° 0.5 mm 2 mps 730 mmHg 80%
06:00 +14°C° 0.5 mm 2 mps 730 mmHg 86%
07:00 +14°C° 0.5 mm 1 mps 730 mmHg 92%
08:00 +15°C° 0.1 mm 2 mps 730 mmHg 81%
09:00 +17°C° 0.1 mm 2 mps 730 mmHg 71%
10:00 +18°C° 0.1 mm 3 mps 730 mmHg 60%
11:00 +20°C° 0 mm 3 mps 730 mmHg 52%
12:00 +22°C° 0 mm 4 mps 730 mmHg 43%
13:00 +23°C° 0 mm 4 mps 730 mmHg 35%
14:00 +25°C° 0 mm 4 mps 730 mmHg 32%
15:00 +25°C° 0 mm 5 mps 730 mmHg 30%
16:00 +25°C° 0 mm 5 mps 729 mmHg 28%
17:00 +23°C° 0 mm 4 mps 729 mmHg 30%
18:00 +22°C° 0 mm 4 mps 729 mmHg 33%
19:00 +21°C° 0 mm 3 mps 729 mmHg 35%
20:00 +19°C° 0 mm 2 mps 729 mmHg 40%
21:00 +17°C° 0 mm 2 mps 729 mmHg 44%
22:00 +15°C° 0 mm 1 mps 729 mmHg 49%
23:00 +14°C° 0 mm 1 mps 729 mmHg 51%

29 July, Thursday

Time Temperature Precipitation Wind Pressure Humidity
00:00 +14°C° 0 mm 1 mps 729 mmHg 53%
01:00 +13°C° 0 mm 1 mps 729 mmHg 55%
02:00 +13°C° 0 mm 1 mps 729 mmHg 57%
03:00 +13°C° 0 mm 1 mps 728 mmHg 58%
04:00 +12°C° 0 mm 1 mps 728 mmHg 60%
05:00 +14°C° 0 mm 1 mps 728 mmHg 56%
06:00 +15°C° 0 mm 1 mps 728 mmHg 52%
07:00 +17°C° 0 mm 2 mps 729 mmHg 48%
08:00 +19°C° 0 mm 2 mps 729 mmHg 43%
09:00 +21°C° 0 mm 3 mps 729 mmHg 38%
10:00 +24°C° 0 mm 3 mps 729 mmHg 33%
11:00 +25°C° 0 mm 4 mps 728 mmHg 33%
12:00 +26°C° 0 mm 5 mps 728 mmHg 32%
13:00 +27°C° 0 mm 6 mps 728 mmHg 31%
14:00 +25°C° 0.1 mm 5 mps 727 mmHg 40%
15:00 +22°C° 0.1 mm 5 mps 727 mmHg 50%
16:00 +21°C° 0.1 mm 4 mps 727 mmHg 59%
17:00 +19°C° 1.6 mm 4 mps 727 mmHg 70%
18:00 +18°C° 1.6 mm 4 mps 727 mmHg 82%
19:00 +15°C° 1.6 mm 4 mps 727 mmHg 93%
20:00 +15°C° 0.7 mm 4 mps 727 mmHg 94%
21:00 +16°C° 0.7 mm 3 mps 727 mmHg 94%
22:00 +14°C° 0.7 mm 3 mps 727 mmHg 94%
23:00 +14°C° 0.9 mm 3 mps 726 mmHg 94%
Show more

We Need Your Consent

Meteoprog and our Service Providers may store and access personal data such as cookies, device identifiers or other similar technologies on your device and process such data to personalise content and ads, as well as provide social media features and to analyse the traffic.

  • Store and/or access information on your device

    Cookies, device identifiers or other information can be stored or accessed on your device for the purposes indicated above.

  • Personalised ads and content, ad and content measurement, audience insights, and products development

    Ads and content can be personalised based on a profile. More data can be added to better personalise ads and content. Ad and content performance can be measured. Insights about the audience who saw the ads and content can be derived. Such data can be used to develop or improve user’s experience, systems and software.

By clicking ‘I Agree’ you will allow the use of indicated cookies, device identifiers, web beacons or other similar technologies. Your settings can be changed in the browser on your device.

For certain purposes, legitimate interests may be relied on, rather than consent. You can read more about this in our Privacy and Cookie Policy.